Regional Weather Roundup
Issued by NWS Upton, NY

Current Version | Previous Version | Text Only | Print | Product List | Glossary On
Versions: 1 2 3 4 5 6 7 8 9 10 11 12 13 14 15 16 17 18 19 20 21 22 23 24 25 26 27 28 29 30 31 32 33 34 35 36 37 38 39 40 41 42 43 44 45 46 47 48 49 50
000
ASUS41 KOKX 211908
RWROKX

REGIONAL WEATHER ROUNDUP
NATIONAL WEATHER SERVICE NEW YORK NY
300 PM EDT MON AUG 21 2017

NOTE: "FAIR" INDICATES FEW OR NO CLOUDS BELOW 12,000 FEET WITH NO
SIGNIFICANT WEATHER AND/OR OBSTRUCTIONS TO VISIBILITY.

NYZ071-072-176-178-NJZ106-104-212000-
NEW YORK CITY METRO AREA

CITY           SKY/WX    TMP DP  RH WIND       PRES   REMARKS
Central Park   PTSUNNY   81  66  60 VRB5      30.16F
Bronx Bot Gard   N/A     84  63  48 SW9       30.13F
LaGuardia APRT PTSUNNY   84  65  52 S14       30.13F
Kennedy INTL   PTSUNNY   80  68  66 S14       30.16F
Breezy Point     N/A     77 N/A N/A S9          N/A
Newark/Liberty PTSUNNY   85  63  47 SW9       30.13F
Teterboro      MOSUNNY   85  65  51 SW10      30.12F
$$

NYZ177-179-078>081-212000-
LONG ISLAND NEW YORK

CITY           SKY/WX    TMP DP  RH WIND       PRES   REMARKS
Jones Beach      N/A     77 N/A N/A S5G10       N/A
Matinecock PT    N/A     81 N/A N/A SW10        N/A
Farmingdale    MOSUNNY   80  63  55 SW12      30.15F
MacArthur/ISP  PTSUNNY   80  64  58 SW10      30.14F
Shirley        PTSUNNY   81  65  58 SW8       30.15F
Mt Sinai Harb    N/A     81 N/A N/A SW7         N/A
Westhampton    MOSUNNY   79  62  56 SW10G20   30.16F
East Hampton   FAIR      78  65  63 SW9       30.14S
Montauk          N/A     78  71  79 SW3       30.15F
$$

NYZ052-065-067-212000-
HUDSON VALLEY

CITY           SKY/WX    TMP DP  RH WIND       PRES   REMARKS
White Plains   MOSUNNY   82  61  48 SW3       30.14F
Larchmont Harb   N/A     79 N/A N/A S15         N/A
Croton On Huds   N/A     84 N/A N/A SW5         N/A
Newburgh       MOSUNNY   82  68  61 W7        30.14F
Montgomery     MOSUNNY   81  68  64 SW7       30.12F
Poughkeepsie   MOSUNNY   83  62  49 CALM      30.11F
Albany         MOSUNNY   81  64  56 S6        30.10F
$$

NJZ001-105-106-008-010-013-015-019>022-104-212000-
NEW JERSEY

CITY           SKY/WX    TMP DP  RH WIND       PRES   REMARKS
Newark/Liberty PTSUNNY   85  63  47 SW9       30.13F
Teterboro      MOSUNNY   85  65  51 SW10      30.12F
Caldwell       MOSUNNY   83  68  60 SW7       30.14F
Somerville     PTSUNNY   82  70  66 S3        30.12F
Linden         FAIR      84  63  47 CALM      30.14F
Perth Amboy      N/A     82 N/A N/A S9          N/A
Sussex         MOSUNNY   80  70  71 VRB6      30.14F
Andover          N/A     80  69  69 SW3       30.15F
Trenton        PTSUNNY   83  67  58 SW7       30.14F
Millville      MOSUNNY   82  70  66 VRB3      30.16F
Atlantic City  MOSUNNY   80  69  69 S12       30.17F
Wrightstown    MOSUNNY   82  66  58 SW7       30.12F
Toms River     MOSUNNY   81  68  64 S10       30.16F
Belmar         PTSUNNY   80  65  59 SE8       30.17F
$$

PAZ047>061-062-071-212000-
EASTERN PENNSYLVANIA

CITY           SKY/WX    TMP DP  RH WIND       PRES   REMARKS
Philadelphia   PTSUNNY   84  67  56 S10       30.15F
Allentown      MOSUNNY   82  70  66 SW9       30.14F
Scranton       SUNNY     83  67  58 SW10      30.14F
$$

CTZ002-004>006-009-010-012-RIZ004-006-007-MAZ004-011-015-212000-
SOUTHERN NEW ENGLAND
 IN CT

CITY           SKY/WX    TMP DP  RH WIND       PRES   REMARKS
Bradley INTL   PTSUNNY   84  58  40 SW14      30.11F
Hartford       CLOUDY    84  62  47 SW8       30.10F
Danbury        PTSUNNY   82  63  52 S8        30.15F
Wtrbury/Oxford MOSUNNY   79  64  60 CALM      30.16F
Norwalk Harbor   N/A     79 N/A N/A SW7         N/A
Bridgeport     CLOUDY    81  65  58 SW6       30.13F
Meriden        CLOUDY    82  62  50 SW3       30.12F
New Haven      CLOUDY    81  62  52 SW9       30.13F
Chester        FAIR      79  64  61 SW7       30.14F
Groton         CLOUDY    76  66  71 SW7       30.12F
Wilimantic     PTSUNNY   83  62  49 SW7       30.12F

 IN RI

CITY           SKY/WX    TMP DP  RH WIND       PRES   REMARKS
Providence     PTSUNNY   84  62  47 W6        30.11F
Block Island   MOSUNNY   75  68  78 SW12      30.14F
Westerly       CLOUDY    78  66  66 SW7       30.14F
 IN MA

CITY           SKY/WX    TMP DP  RH WIND       PRES   REMARKS
Boston         CLOUDY    84  60  44 W12       30.08F
Worcester      MOSUNNY   78  57  48 W7        30.14F
Westfield      CLOUDY    85  58  39 SW7       30.10F
Provincetown   MOSUNNY   76  63  64 S7        30.11F
Nantucket      SUNNY     72  68  87 SW12      30.13F
$$

ANZ330-335-338-340-345-350-353-355-212000-
COASTAL MARINE OBSERVATIONS


STATION/POSITION TIME  SKY/WX   TEMP    WIND        PRES    VSBY  WAVE
                                AIR SEA DIR/SP/G                  HT/PER
                 (UTC)          (F)     (DEG/KT/KT) (MB)    (MI)  (FT/S)
NY HARB ENTRANCE 1850            78 77  190/ 14/ 17 1020.4          2/ 8
GREAT SOUTH BAY  1830            77 80  220/ 12/ 14   N/A
23 SSW MONTAUK P 1750            74 74              1021.8          2/ 8
15 E BARNEGAT LI 1830               78                N/A           2/14
HUDSON CANYON    1850            76 76  220/  8/ 10 1021.5          2/ 7
KINGS POINT      1824            81 75  220/ 13/ 15 1020.4
EXECUTION ROCKS  NOT AVBL
WESTERN LI SOUND NOT AVBL
CENTRAL LI SOUND NOT AVBL
EASTERN LI SOUND NOT AVBL
ROBBINS REEF     1824                   160/ 16/ 17 1021.4
$$


>>>>>>>>>>>>>>>>>>>>>>>>>>>> KEY <<<<<<<<<<<<<<<<<<<<<<<<<<<
>                                                          <
>     SKY/WX - Sky Condition/Present Weather               <
>     TMP    - Temperature in Fahrenheit                   <
>     DP     - Dew Point in Fahrenheit                     <
>     RH     - Relative Humidity in Percent                <
>     WIND   - Direction (from) and Speed in MPH           <
>     PRES   - Mean Sea Level Pressure (inches of Hg)      <
>     WCI    - Wind Chill Index                            <
>     VSB    - VISIBILITY IN MILES                         <
>     HX     - HEAT INDEX                                  <
>     TC     - TEMPERATURE IN CELSIUS                      <
>     VRB    - VARIABLE WIND DIRECTION                     <
>                                                          <
>>>>>>>>>>>>>>>>>>>>>>>>>>>> KEY <<<<<<<<<<<<<<<<<<<<<<<<<<<



USA.gov is the U.S. government's official web portal to all federal, state and local government web resources and services.